Weather in Yongin

South Korea     37°14′11″N   127°12′49″E
temp.,
°C
wind,
m/s
gust,
m/s
humid.,
%
clouds,
%
prec.,
mm/h
press.,
hPa
HPBL,
m
19 april, mon
mon1900:00+8sw37650 0.0 1017338
03:00+6sw23730 0.0 1018163
06:00+5s12730 0.0 101885
09:00+11sw24470 0.0 1018500
12:00+17wsw47290 0.0 10171034
15:00+18w582985 0.0 10151005
18:00+16w58360 0.0 1016652
21:00+12wsw37560 0.0 1019347
20 april, tue
tue2000:00+10sw25660 0.0 1020266
03:00+9ssw11700 0.0 102027
06:00+8s11700 0.0 102124
09:00+14sse01465 0.0 1022407
12:00+20wnw12275 0.0 1021836
15:00+22w222289 0.0 10201157
18:00+19w4429100 0.0 1020393
21:00+15wsw1237100 0.0 1023133
21 april, wed
wed2100:00+14sw1141100 0.0 102314
03:00+12nne11457 0.0 102310
06:00+11e114862 0.0 102310
09:00+17e123513 0.0 1024302
12:00+23ese1124100 0.0 1022775
15:00+26sse1220100 0.0 10201424
18:00+24w2325100 0.0 1019655
21:00+18wsw3534100 0.0 1022296
22 april, thu
thu2200:00+17w2439100 0.0 1022265
03:00+16ne1141100 0.0 102170
06:00+15ese2347100 0.0 1020110
09:00+18e2439100 0.0 1020298
12:00+22ssw3630100 0.0 10191138
15:00+21sw5926100 0.0 10182154
18:00+18ne2542100 0.1 1018552
21:00+18ne1343100 0.1 1019341
23 april, fri
fri2300:00+16ene4751100 0.1 1019597
03:00+16ene2651100 0.1 1019244
06:00+15ne1159100 0.1 101997
09:00+16ene2454100 0.1 1019370
12:00+19ese3835100 0.0 10202217
15:00+19e4640100 0.0 10192030
18:00+18ese463798 0.0 10191618
21:00+14ne376410 0.0 1021330